Date String (YYYY-MM-DD hh:mm:ss) UTC,Instrument flags,Ambient pressure (hPa),Sample flow (lpm),Bypass flow (lpm),Sample temperature (°C),Ambient temperature (°C),ASC tube jacket temperature (°C),LED temperature (°C),Box temperature (°C),Sample RH (%),Span deviation,Mass concentration (μg/m³),Mass concentration (μg/m³),Mass concentration (μg/m³)
DateTimeUTC,F1_M11,P_M11,Q1_M11,Q2_M11,T1_M11,T2_M11,T3_M11,T4_M11,T5_M11,U1_M11,ZSPAN_M11,X0_M11,X2_M11,X1_M11
2022-01-02 02:00:00,,0823.0,5.00,0.00,22.2,23.2,00.0,31.1,24.2,04.1,0000.0,0003.08,0000.10,0000.01
2022-01-02 02:01:00,,0823.0,5.01,0.00,22.3,23.0,00.0,31.1,24.2,04.2,0000.0,0003.04,0000.10,0000.01
2022-01-02 02:02:00,,0822.9,4.99,0.00,22.3,22.7,00.0,31.1,24.1,04.0,0000.0,0003.04,0000.10,0000.01
2022-01-02 02:03:00,,0823.0,5.00,0.00,22.3,22.3,00.0,31.1,23.9,03.8,0000.0,0003.04,0000.10,0000.01
2022-01-02 02:04:00,,0822.9,4.99,0.00,22.2,22.0,00.0,31.1,23.8,03.7,0000.0,0003.06,0000.12,0000.01
2022-01-02 02:05:00,,0822.9,5.01,0.00,22.1,21.8,00.0,31.1,23.7,03.7,0000.0,0003.02,0000.11,0000.01
2022-01-02 02:06:00,,0822.9,4.99,0.00,22.1,21.6,00.0,31.1,23.5,03.8,0000.0,0002.96,0000.09,0000.01
2022-01-02 02:07:00,,0823.0,5.00,0.00,22.0,21.4,00.0,31.1,23.5,03.9,0000.0,0003.02,0000.09,0000.01
2022-01-02 02:08:00,,0823.0,5.01,0.00,21.9,21.2,00.0,31.1,23.4,04.0,0000.0,0002.92,0000.08,0000.01
2022-01-02 02:09:00,,0823.0,4.99,0.00,21.9,21.4,00.0,31.1,23.4,04.1,0000.0,0001.29,0000.08,0000.01
2022-01-02 02:10:00,,0823.0,5.00,0.00,22.0,22.1,00.0,31.1,23.7,04.1,0000.0,0000.93,0000.07,0000.01
2022-01-02 02:11:00,,0822.9,5.00,0.00,22.2,22.8,00.0,31.2,24.0,04.3,0000.0,0000.35,0000.05,0000.01
2022-01-02 02:12:00,,0823.0,5.00,0.00,22.3,23.1,00.0,31.2,24.2,04.6,0000.0,0000.33,0000.04,0000.01
2022-01-02 02:13:00,,0823.0,4.99,0.00,22.3,22.8,00.0,31.2,24.1,04.9,0000.0,0000.33,0000.04,0000.01
2022-01-02 02:14:00,,0823.0,5.02,0.00,22.3,22.4,00.0,31.2,24.0,05.0,0000.0,0000.36,0000.05,0000.01
2022-01-02 02:15:00,,0823.0,4.99,0.00,22.2,22.1,00.0,31.2,23.8,04.7,0000.0,0000.36,0000.04,0000.01
2022-01-02 02:16:00,,0823.0,5.00,0.00,22.2,21.8,00.0,31.2,23.7,04.6,0000.0,0000.35,0000.04,0000.01
2022-01-02 02:17:00,,0823.0,5.01,0.00,22.1,21.6,00.0,31.2,23.6,04.9,0000.0,0000.31,0000.05,0000.01
2022-01-02 02:18:00,,0823.0,4.98,0.00,22.0,21.4,00.0,31.2,23.5,04.6,0000.0,0000.26,0000.06,0000.01
2022-01-02 02:19:00,,0822.9,5.01,0.00,21.9,21.2,00.0,31.1,23.3,04.4,0000.0,0000.28,0000.07,0000.01
2022-01-02 02:20:00,,0823.0,5.00,0.00,21.9,21.4,00.0,31.1,23.4,04.3,0000.0,0000.13,0000.06,0000.00
2022-01-02 02:21:00,,0823.0,5.00,0.00,22.0,22.0,00.0,31.1,23.7,04.3,0000.0,0000.14,0000.06,0000.01
2022-01-02 02:22:00,,0823.0,5.00,0.00,22.2,22.7,00.0,31.2,24.0,04.2,0000.0,0000.26,0000.07,0000.01
2022-01-02 02:23:00,,0823.0,5.01,0.00,22.3,23.1,00.0,31.2,24.2,04.1,0000.0,0000.40,0000.08,0000.01
2022-01-02 02:24:00,,0823.0,5.00,0.00,22.3,22.9,00.0,31.2,24.2,04.1,0000.0,0000.42,0000.09,0000.01
2022-01-02 02:25:00,,0823.0,5.00,0.00,22.3,22.5,00.0,31.2,24.0,04.1,0000.0,0000.40,0000.08,0000.01
2022-01-02 02:26:00,,0823.0,4.99,0.00,22.3,22.3,00.0,31.2,23.9,04.2,0000.0,0000.38,0000.07,0000.01
2022-01-02 02:27:00,,0823.0,5.01,0.00,22.2,22.0,00.0,31.2,23.8,04.2,0000.0,0000.38,0000.07,0000.01
2022-01-02 02:28:00,,0823.0,4.99,0.00,22.2,21.8,00.0,31.2,23.7,04.2,0000.0,0000.36,0000.06,0000.01
2022-01-02 02:29:00,,0822.9,5.00,0.00,22.1,21.6,00.0,31.2,23.6,04.2,0000.0,0000.42,0000.06,0000.01
2022-01-02 02:30:00,,0822.9,5.00,0.00,22.1,21.5,00.0,31.2,23.5,04.2,0000.0,0000.45,0000.05,0000.01
2022-01-02 02:31:00,,0822.9,5.00,0.00,22.0,21.3,00.0,31.2,23.4,04.2,0000.0,0000.48,0000.07,0000.01
2022-01-02 02:32:00,,0822.9,5.00,0.00,22.0,21.6,00.0,31.2,23.6,04.1,0000.0,0000.46,0000.06,0000.01
2022-01-02 02:33:00,,0823.0,5.00,0.00,22.1,22.3,00.0,31.2,23.8,04.0,0000.0,0000.40,0000.06,0000.01
2022-01-02 02:34:00,,0823.1,5.00,0.00,22.3,22.9,00.0,31.2,24.1,04.0,0000.0,0000.20,0000.05,0000.01
2022-01-02 02:35:00,,0823.1,5.00,0.00,22.4,23.1,00.0,31.3,24.2,03.8,0000.0,0000.23,0000.06,0000.01
2022-01-02 02:36:00,,0823.1,5.00,0.00,22.4,22.8,00.0,31.3,24.2,03.7,0000.0,0000.22,0000.05,0000.01
2022-01-02 02:37:00,,0823.1,4.99,0.00,22.4,22.5,00.0,31.3,24.0,03.7,0000.0,0000.22,0000.05,0000.01
2022-01-02 02:38:00,,0823.1,5.01,0.00,22.3,22.2,00.0,31.3,23.9,03.8,0000.0,0000.22,0000.05,0000.01
2022-01-02 02:39:00,,0823.1,4.99,0.00,22.2,21.9,00.0,31.3,23.8,03.9,0000.0,0000.23,0000.06,0000.01
2022-01-02 02:40:00,,0823.1,5.02,0.00,22.2,21.7,00.0,31.2,23.7,03.9,0000.0,0000.16,0000.07,0000.01
2022-01-02 02:41:00,,0823.1,5.00,0.00,22.1,21.5,00.0,31.2,23.6,03.9,0000.0,0000.11,0000.05,0000.00
2022-01-02 02:42:00,,0823.1,5.00,0.00,22.0,21.3,00.0,31.2,23.5,04.0,0000.0,0001.27,0000.04,0000.00
2022-01-02 02:43:00,,0823.1,4.99,0.00,22.0,21.4,00.0,31.2,23.5,04.0,0000.0,0001.77,0000.06,0000.01
2022-01-02 02:44:00,,0823.1,5.00,0.00,22.1,22.1,00.0,31.2,23.8,04.0,0000.0,0001.81,0000.08,0000.01
2022-01-02 02:45:00,,0823.1,5.00,0.00,22.2,22.8,00.0,31.2,24.1,03.9,0000.0,0001.81,0000.08,0000.01
2022-01-02 02:46:00,,0823.1,5.02,0.00,22.4,23.4,00.0,31.3,24.3,03.8,0000.0,0001.81,0000.08,0000.01
2022-01-02 02:47:00,,0823.1,4.99,0.00,22.5,23.3,00.0,31.3,24.4,03.9,0000.0,0001.84,0000.09,0000.01
2022-01-02 02:48:00,,0823.1,5.01,0.00,22.5,22.9,00.0,31.3,24.3,03.9,0000.0,0002.63,0000.11,0000.01
2022-01-02 02:49:00,,0823.1,4.99,0.00,22.4,22.6,00.0,31.3,24.1,04.0,0000.0,0003.34,0000.12,0000.01
2022-01-02 02:50:00,,0823.2,5.01,0.00,22.4,22.3,00.0,31.3,23.9,03.9,0000.0,0003.36,0000.11,0000.01
2022-01-02 02:51:00,,0823.2,5.00,0.00,22.3,22.0,00.0,31.3,23.8,03.8,0000.0,0003.34,0000.10,0000.01
2022-01-02 02:52:00,,0823.1,5.00,0.00,22.2,21.7,00.0,31.3,23.7,04.0,0000.0,0003.34,0000.10,0000.01
2022-01-02 02:53:00,,0823.2,4.99,0.00,22.2,21.5,00.0,31.3,23.6,04.2,0000.0,0002.09,0000.10,0000.01
2022-01-02 02:54:00,,0823.3,5.00,0.00,22.1,21.4,00.0,31.3,23.5,04.3,0000.0,0001.73,0000.11,0000.01
2022-01-02 02:55:00,,0823.2,5.01,0.00,22.0,21.4,00.0,31.2,23.6,04.5,0000.0,0001.75,0000.10,0000.01
2022-01-02 02:56:00,,0823.3,5.00,0.00,22.1,22.1,00.0,31.3,23.8,04.7,0000.0,0001.79,0000.09,0000.01
2022-01-02 02:57:00,,0823.3,5.00,0.00,22.3,22.8,00.0,31.3,24.1,04.5,0000.0,0001.79,0000.10,0000.01
2022-01-02 02:58:00,,0823.3,5.00,0.00,22.4,23.3,00.0,31.3,24.3,04.6,0000.0,0001.83,0000.13,0000.01
2022-01-02 02:59:00,,0823.2,5.00,0.00,22.5,23.1,00.0,31.3,24.3,04.4,0000.0,0000.96,0000.11,0000.00
